Orbital Elements at Epoch 2459000.5 (2020-May-31.0) TDB
Reference: JPL 11 (heliocentric ecliptic J2000)
Element | Value | Uncertainty (1-sigma) | Units |
e | .1428317726636725 | 4.6658e-08 | |
a | 3.020818981269257 | 3.346e-08 | au |
q | 2.5893500512785 | 1.2787e-07 | au |
i | 6.251311426922174 | 4.1365e-06 | deg |
node | 123.7281745034713 | 4.5563e-05 | deg |
peri | 139.940947063859 | 5.0499e-05 | deg |
M | 58.26957630090514 | 1.9572e-05 | deg |
tp | 2458690.097765791030 (2019-Jul-25.59776579) | 0.00010576 | TDB |
period | 1917.721243383972 5.25 | 3.1862e-05 8.723e-08 | d yr |
n | .1877227992556161 | 3.1189e-09 | deg/d |
Q | 3.452287911260015 | 3.8239e-08 | au |
|
| | Orbit Determination Parameters
Additional Information
|